This is the latest recevied weather packets stored in our database for station/object KB0Y. If no packets are shown the sender has not sent any weather packets the latest 10 day(s).
| Time | Temp. | Humidity | Pressure | Rain* | Wind** | Luminosity | Snow |
|---|---|---|---|---|---|---|---|
| 1777505151 | 28.89° C | 66% | 1014.5 hPa | 0 mm | - | 28 W/m² | - |
| 1777504848 | 28.89° C | 65% | 1014.5 hPa | 0 mm | - | 41 W/m² | - |
| 1777504545 | 29.44° C | 64% | 1014.2 hPa | 0 mm | - | 56 W/m² | - |
| 1777504241 | 29.44° C | 63% | 1014.2 hPa | 0 mm | - | 94 W/m² | - |
| 1777503937 | 30° C | 62% | 1013.9 hPa | 0 mm | - | 157 W/m² | - |
| 1777503633 | 30.56° C | 61% | 1013.9 hPa | 0 mm | - | 198 W/m² | - |
| 1777503331 | 30.56° C | 60% | 1014.2 hPa | 0 mm | - | 119 W/m² | - |
| 1777503027 | 30.56° C | 59% | 1014.2 hPa | 0 mm | - | 249 W/m² | - |
| 1777502724 | 31.11° C | 57% | 1014.2 hPa | 0 mm | - | 246 W/m² | - |
| 1777502421 | 31.11° C | 56% | 1014.2 hPa | 0 mm | - | 290 W/m² | - |
| 1777502118 | 31.67° C | 56% | 1014.5 hPa | 0 mm | - | 306 W/m² | - |
| 1777501816 | 31.67° C | 55% | 1014.2 hPa | 0 mm | - | 294 W/m² | - |
| 1777501512 | 31.67° C | 54% | 1014.2 hPa | 0 mm | - | 313 W/m² | - |
| 1777501209 | 31.67° C | 54% | 1014.5 hPa | 0 mm | - | 343 W/m² | - |
| 1777500907 | 32.22° C | 53% | 1014.2 hPa | 0 mm | - | 354 W/m² | - |
| 1777500604 | 32.22° C | 51% | 1014.2 hPa | 0 mm | - | 385 W/m² | - |
| 1777500301 | 31.67° C | 50% | 1014.5 hPa | 0 mm | - | 396 W/m² | - |
| 1777499997 | 31.67° C | 50% | 1014.2 hPa | 0 mm | - | 397 W/m² | - |
| 1777499694 | 31.67° C | 51% | 1014.2 hPa | 0 mm | - | 411 W/m² | - |
| 1777499390 | 31.67° C | 51% | 1014.2 hPa | 0 mm | - | 400 W/m² | - |
| 1777499089 | 31.67° C | 51% | 1014.2 hPa | 0 mm | - | 418 W/m² | - |
| 1777498785 | 32.22° C | 51% | 1014.2 hPa | 0 mm | - | 442 W/m² | - |
| 1777498482 | 32.78° C | 51% | 1014.2 hPa | 0 mm | - | 440 W/m² | - |
| 1777498178 | 32.78° C | 52% | 1014.2 hPa | 0 mm | - | 111 W/m² | - |
| 1777497876 | 33.33° C | 50% | 1014.2 hPa | 0 mm | - | 134 W/m² | - |
* Rain latest hour (hover to see other rain measurements)
** Current wind speed in m/s (hover to see current wind gust speed)